Theta_e
328 322 318 319 328 331 326 320 307 313 309 304 305 306 304 311 311 309 309 309 308 309 310 310 314 313 311 310 312 313 313 309 310 304 305 324 334 333 340 339 341 342 341 345 345 349 350 349 349 350 348 346 346 346 345 346 346 347 346 346 346 346 346 346 346 346 347 346 347 346 346 346 346 346 345 345 344 345 344 344 344 345 345 345 345 345 345 345 344 344 346 345 345 343 342 341 340
323 320 316 323 328 326 317 319 309 306 306 303 305 307 307 309 308 308 309 309 310 310 308 310 313 315 311 311 311 313 313 314 315 316 324 331 336 334 340 339 340 340 342 345 346 347 348 350 349 350 348 346 346 346 345 345 346 347 346 346 346 346 346 346 346 347 346 346 346 346 345 345 346 345 345 344 344 345 343 342 341 340 341 344 346 345 345 344 344 344 344 344 342 341 340 340 339
321 316 316 325 325 321 319 317 303 304 301 299 305 307 310 307 307 310 311 311 312 309 309 310 313 312 312 311 309 309 309 317 315 317 319 334 330 332 337 340 340 342 342 344 345 347 348 348 348 349 348 346 346 346 345 344 344 344 347 345 346 345 346 346 346 346 346 345 345 345 345 344 345 345 344 344 344 344 343 341 339 338 336 336 336 341 345 344 344 343 343 343 342 340 340 338 337
319 315 314 325 317 320 311 310 304 303 301 302 303 309 308 308 310 311 313 312 310 310 310 309 309 315 312 309 311 313 312 313 318 319 318 328 330 336 339 340 342 343 344 344 346 346 348 347 347 348 348 347 346 346 345 343 344 343 343 343 345 345 346 346 346 346 346 345 345 345 345 345 344 344 345 344 344 344 343 341 340 338 337 336 335 335 341 344 343 342 342 341 340 340 338 337 336
315 319 321 319 316 308 308 307 306 305 299 304 302 309 309 311 311 312 312 312 309 310 310 311 310 312 313 312 313 310 312 317 319 323 323 334 338 338 339 340 341 342 343 344 345 346 347 346 346 347 348 347 346 346 344 343 344 343 343 343 343 343 344 346 346 345 345 345 344 345 345 345 344 344 344 344 344 343 341 340 339 339 338 337 335 334 337 344 343 341 341 340 339 338 338 337 335
315 321 323 319 309 316 311 303 303 302 306 309 306 308 311 312 311 311 311 312 310 310 311 310 309 309 310 312 315 313 317 312 324 324 327 334 337 340 340 341 340 342 342 344 345 346 348 345 345 347 348 348 346 346 345 344 344 343 343 343 343 341 342 344 346 345 345 345 345 344 344 344 344 343 343 344 343 342 341 340 338 337 336 336 334 334 334 342 342 341 341 339 339 337 337 336 336
312 315 316 316 313 312 302 302 302 304 307 311 308 309 312 312 312 310 311 310 307 309 310 310 310 311 308 314 315 319 320 325 324 328 331 338 341 340 340 340 341 341 342 344 344 346 348 344 345 346 347 348 347 346 344 344 344 342 341 342 342 340 342 341 344 344 346 345 345 344 344 344 344 343 343 343 342 341 340 339 338 336 335 334 334 334 335 335 338 339 340 339 338 337 336 335 335
319 314 313 306 305 305 301 302 303 306 307 311 312 311 312 311 311 310 310 307 308 308 309 310 310 308 310 315 311 322 321 324 329 331 335 337 340 340 340 340 340 341 342 344 346 347 347 343 344 345 346 347 346 346 345 344 343 341 341 341 341 339 341 340 343 344 342 344 343 344 343 343 343 343 343 342 341 340 339 339 339 338 336 334 333 333 334 333 335 336 335 337 337 337 335 336 335
317 313 313 306 300 305 300 300 302 307 307 307 309 312 315 312 310 310 309 310 309 310 310 310 311 307 309 313 312 322 323 325 328 332 335 338 338 339 339 339 339 340 342 343 345 348 350 343 343 344 345 346 346 346 345 344 343 342 341 340 339 338 339 340 341 341 340 341 344 342 343 342 342 342 342 341 341 339 339 338 336 339 337 336 334 333 333 333 332 331 335 334 334 337 336 336 335
313 308 303 302 304 298 299 300 300 304 305 308 307 309 310 311 310 311 309 308 309 310 311 312 312 308 312 310 312 318 322 330 331 333 336 338 339 339 339 340 341 340 342 343 345 346 348 344 342 342 343 344 345 345 345 344 343 342 341 340 339 338 337 339 338 339 338 338 340 342 343 341 341 341 342 341 340 339 339 337 336 336 337 336 336 334 333 332 333 330 331 331 332 337 336 335 334
302 309 311 300 297 296 297 299 302 304 303 306 307 309 310 310 309 308 309 309 311 309 310 310 309 309 311 311 314 327 329 330 330 331 337 338 339 339 339 340 342 342 340 344 344 346 347 347 343 341 341 342 343 343 344 344 343 342 342 341 339 338 337 338 337 337 336 336 339 341 341 340 338 342 340 340 341 342 338 335 333 332 331 333 337 336 334 332 332 332 331 331 332 338 336 335 334
299 302 304 296 297 297 299 300 302 303 304 304 304 306 309 308 309 307 308 306 309 309 310 310 309 313 309 310 313 321 329 329 331 335 337 339 338 339 339 340 341 342 342 343 345 345 347 347 347 344 340 339 340 341 342 342 342 342 342 341 340 338 337 337 338 337 336 336 339 339 339 339 338 337 336 337 338 339 338 336 333 332 331 333 338 337 335 333 331 330 333 331 332 336 335 335 333
301 306 299 296 296 298 299 299 299 301 301 302 303 305 309 307 306 307 308 308 309 308 309 313 316 313 308 310 321 321 322 329 332 336 337 338 338 338 339 339 340 340 340 344 343 344 347 346 346 346 343 338 338 339 339 339 341 341 341 341 340 340 339 339 339 338 338 339 339 339 338 339 339 336 336 335 337 338 340 337 338 331 330 335 338 339 336 333 331 330 330 330 332 332 334 331 330
302 304 302 295 301 297 297 297 300 297 299 303 305 307 307 306 308 308 308 306 307 307 311 314 314 314 310 316 316 318 325 330 332 336 337 337 338 337 337 338 339 339 341 342 341 343 345 345 345 346 346 345 344 340 337 337 338 340 339 339 339 339 339 339 339 338 338 338 337 336 337 340 339 339 336 335 336 337 336 334 334 334 330 336 337 339 338 335 333 332 331 329 329 329 328 328 330
301 309 302 298 296 297 298 295 297 298 298 303 303 305 306 308 309 309 308 305 307 313 313 314 315 311 308 311 312 318 322 330 333 335 336 336 336 337 337 337 338 339 339 340 341 342 344 345 345 345 346 346 344 343 343 342 335 336 337 337 337 337 337 337 336 336 336 336 335 335 336 339 337 336 335 335 334 334 334 332 331 333 330 330 338 338 338 337 335 334 332 330 329 328 328 327 329
307 305 301 296 293 295 297 296 299 297 298 302 303 304 305 308 309 308 309 310 310 312 312 310 314 311 316 314 318 322 325 331 333 334 334 334 335 335 336 335 335 337 339 339 339 342 344 344 345 345 345 344 344 343 341 341 336 334 334 335 335 335 335 335 333 332 332 333 333 332 333 336 336 335 333 335 331 332 333 331 330 332 334 331 338 338 338 338 336 335 334 332 332 331 331 331 331
310 306 296 295 292 295 297 297 298 294 301 302 304 305 303 304 308 310 310 311 309 310 310 313 312 319 315 317 323 324 328 332 331 332 332 331 332 332 333 334 334 335 336 337 338 340 343 343 343 344 345 344 345 343 342 341 341 333 333 332 332 332 333 332 330 329 328 328 330 329 331 334 333 332 334 331 331 334 328 326 327 330 333 335 335 337 338 338 337 336 334 333 332 331 334 335 334
306 297 295 292 295 294 298 298 300 301 299 302 303 303 304 302 306 307 310 309 309 311 310 312 313 314 321 324 327 328 330 330 330 330 329 329 330 329 329 331 331 331 333 335 337 338 340 343 344 343 344 344 344 343 342 342 342 337 340 339 339 336 333 331 334 336 335 335 329 336 335 331 332 333 330 331 332 334 332 324 326 329 331 331 334 334 333 332 331 331 331 331 331 332 333 333 333
298 296 296 292 295 298 301 301 302 300 299 301 303 304 303 304 304 308 305 306 307 306 308 311 311 314 322 326 327 327 329 329 329 329 329 328 329 328 328 330 330 331 331 333 335 336 338 340 342 341 343 343 344 343 342 342 341 341 341 340 338 333 337 337 337 336 335 334 335 334 334 334 333 332 332 331 331 326 331 324 325 328 329 329 331 334 333 334 334 331 330 332 332 331 333 331 332
300 298 292 293 298 298 301 301 300 300 300 300 301 303 302 305 305 308 304 304 306 304 306 308 308 309 314 322 324 326 327 328 329 329 329 329 329 329 329 329 329 330 331 333 334 336 337 337 340 342 342 343 342 342 343 341 341 341 339 340 339 338 338 338 337 336 335 334 335 334 334 335 334 333 333 333 333 332 332 322 323 325 326 327 328 333 332 332 332 333 332 332 333 330 331 331 330
300 296 293 294 298 296 300 302 301 301 302 299 300 301 301 305 304 304 304 302 303 305 308 307 307 308 311 318 324 325 326 326 327 328 329 329 330 331 331 331 331 332 332 334 335 334 336 337 338 340 342 343 342 342 341 340 341 340 339 339 339 338 338 338 337 337 336 335 334 333 334 335 335 333 333 332 331 330 329 331 332 332 332 332 327 331 331 333 332 332 332 331 332 333 332 331 331
301 297 297 297 300 297 301 302 303 302 302 301 300 299 299 303 304 304 304 301 300 304 308 308 309 310 311 311 322 325 325 326 326 327 328 328 329 329 331 332 333 332 333 332 333 334 335 336 337 339 341 341 342 341 340 339 339 338 338 339 338 338 338 337 337 336 336 336 334 332 334 335 334 333 333 333 332 330 329 329 329 330 330 330 332 330 330 330 330 331 331 330 330 331 331 330 330
294 299 298 300 301 298 302 302 302 302 301 300 299 301 301 301 300 303 302 302 305 309 310 310 310 311 311 314 320 322 325 325 326 327 328 328 328 329 330 331 330 329 331 332 333 334 335 335 336 339 339 340 341 341 340 340 339 338 337 338 338 337 336 336 335 335 335 336 336 335 332 332 332 332 332 332 331 331 329 329 329 329 329 328 328 328 329 330 329 329 329 330 329 330 330 330 329
298 295 299 300 301 300 302 301 302 302 300 299 302 303 299 299 297 303 300 304 306 308 309 309 310 310 311 313 319 318 321 324 326 327 329 329 329 329 330 330 331 332 330 331 332 333 334 334 336 338 338 338 339 340 339 339 339 338 337 336 337 335 335 335 335 335 335 335 336 335 331 332 331 331 331 331 331 331 329 330 329 329 329 328 329 328 327 327 328 328 329 329 328 329 328 329 328
296 295 299 300 301 301 302 301 301 301 301 303 302 299 299 300 299 301 300 303 305 306 307 308 309 309 311 313 312 316 318 321 323 327 329 330 331 331 332 332 331 331 330 329 331 332 333 334 336 336 336 338 338 338 338 337 338 338 336 336 336 334 336 335 335 336 335 334 335 336 334 331 331 331 331 331 331 330 330 330 329 328 329 329 329 328 328 327 328 328 328 327 328 327 327 327 326
298 298 299 299 299 300 301 300 300 300 300 301 299 298 300 301 302 299 301 302 304 306 306 306 307 307 307 308 310 311 315 318 322 324 327 330 330 329 330 331 331 330 331 331 330 331 333 334 334 335 336 336 337 338 336 336 336 337 336 335 336 335 336 335 335 334 334 334 333 334 335 334 332 330 330 331 330 330 330 331 330 329 329 329 328 328 328 328 327 327 327 326 326 327 326 327 326
300 299 298 298 299 299 300 298 299 300 300 301 297 297 297 301 299 294 302 303 306 306 306 307 306 306 307 308 310 312 315 316 319 323 326 328 329 329 329 330 330 330 331 331 330 331 332 332 333 334 335 335 337 336 336 335 335 335 335 335 335 334 335 337 334 332 333 333 333 334 334 334 333 332 331 331 331 329 329 328 328 328 327 328 329 328 329 328 327 327 327 326 326 326 325 326 325
298 298 297 297 298 298 298 298 298 299 298 300 300 298 299 300 299 296 300 303 304 302 303 304 305 307 308 310 310 314 317 320 322 324 324 325 327 328 328 329 330 331 331 331 332 332 332 331 332 333 334 335 335 334 335 336 335 335 335 335 333 333 333 334 335 334 330 331 333 333 333 333 332 332 332 331 330 329 328 328 328 327 326 327 327 328 328 328 327 327 327 326 327 326 325 325 325
296 296 291 293 295 294 296 294 296 297 296 298 298 295 294 296 294 298 300 302 302 302 302 303 304 305 305 306 307 308 310 315 322 323 324 326 328 329 329 331 331 331 332 333 333 332 331 332 331 332 333 334 333 333 333 334 333 333 334 334 333 333 332 331 331 332 333 332 332 332 332 333 333 332 332 332 331 330 329 328 328 327 326 327 328 328 328 327 327 326 326 326 325 325 324 324 325
296 294 291 290 290 291 294 296 296 296 296 297 297 286 291 294 297 298 300 300 300 299 300 301 301 302 303 304 305 306 308 311 315 321 323 325 328 329 329 331 332 332 333 333 333 331 332 332 331 332 332 332 333 332 332 332 331 332 331 332 332 332 331 329 328 329 331 332 332 333 332 332 331 331 332 332 331 330 329 329 328 327 327 328 327 327 326 326 326 326 325 325 322 323 323 323 323
288 291 292 286 286 287 294 294 294 293 297 297 297 288 291 293 295 299 300 299 298 298 299 300 300 301 301 302 303 304 306 308 311 314 319 323 326 328 329 330 331 332 332 333 332 332 332 331 331 330 331 331 331 331 331 330 331 331 331 330 331 331 331 329 328 328 329 331 332 332 332 331 331 331 332 331 330 330 329 328 328 328 327 327 326 327 326 325 325 325 325 324 324 323 323 323 323
291 286 282 289 285 288 292 295 294 289 295 297 295 289 291 294 297 299 299 299 299 298 299 300 300 300 301 301 302 303 304 306 308 310 314 318 322 325 328 329 331 331 331 332 333 333 332 332 332 331 331 331 331 330 331 330 329 329 329 326 328 330 329 328 328 328 329 330 330 331 332 332 331 331 331 331 330 330 329 328 328 328 328 327 327 326 326 325 324 324 325 325 323 323 322 322 323
289 286 284 283 286 286 288 291 294 294 293 295 293 287 291 292 297 298 299 299 298 297 298 299 299 300 300 300 301 302 303 304 306 307 309 313 317 323 325 327 330 331 332 332 332 333 333 333 332 332 331 331 331 331 331 330 330 329 329 329 329 329 328 328 329 330 330 329 330 330 331 331 331 330 330 330 330 329 328 328 328 329 328 327 326 326 326 325 324 324 324 325 324 323 323 322 322
284 287 283 285 283 285 284 291 292 294 292 289 293 290 290 293 296 297 299 299 298 297 297 298 299 299 300 300 300 300 301 303 303 305 307 308 311 314 320 324 327 330 332 332 332 332 332 333 333 333 333 332 332 331 330 330 330 330 330 329 328 328 329 329 330 330 330 329 329 329 331 331 331 331 330 330 329 329 329 328 329 328 328 327 326 326 325 325 325 324 323 324 324 323 322 322 322
280 282 282 283 285 285 284 284 290 291 291 289 290 290 290 293 295 296 297 298 297 297 297 297 298 299 299 299 300 300 301 301 303 305 306 307 308 310 314 320 325 328 330 331 332 332 333 333 333 333 332 333 332 332 331 330 330 330 331 330 330 329 329 330 330 330 330 330 330 330 330 330 331 332 332 331 329 327 327 328 329 329 329 328 327 326 325 325 325 324 323 323 324 324 323 323 323
283 285 284 284 282 283 284 287 291 291 289 288 289 288 290 292 293 295 296 297 296 296 297 297 297 298 299 299 300 300 300 301 303 305 306 306 307 308 309 311 316 322 326 328 329 331 332 332 333 333 332 333 333 332 331 329 329 328 327 328 328 328 328 328 330 330 331 330 330 330 329 328 329 329 331 331 331 328 327 326 327 329 328 327 326 326 325 324 324 323 322 322 322 323 324 323 324
287 286 285 284 284 285 288 289 291 293 290 289 290 290 290 291 292 293 294 296 295 296 296 296 297 298 299 299 300 300 300 300 304 305 305 306 306 307 309 310 310 313 318 324 326 329 330 331 331 331 333 332 332 331 329 328 327 327 327 327 326 328 328 328 328 329 330 330 330 330 329 328 328 328 328 330 330 327 329 328 327 326 327 326 325 325 326 325 325 324 323 323 320 320 321 323 323
287 286 285 284 284 283 288 287 291 293 289 288 290 289 289 290 292 293 295 295 295 295 296 297 298 298 299 299 299 298 298 301 302 301 303 304 305 306 306 307 309 309 310 314 320 324 328 330 330 331 332 332 332 331 330 329 329 328 327 327 328 328 328 326 326 328 328 330 330 329 329 329 329 328 327 328 328 330 329 329 328 326 326 324 324 324 324 323 325 324 323 322 322 320 319 323 322
287 285 285 284 285 286 287 289 291 292 290 286 289 287 289 292 293 295 295 295 297 298 298 297 297 298 298 297 297 298 298 298 299 300 301 302 303 303 304 304 305 306 307 309 312 316 321 326 329 330 331 331 331 331 331 330 331 330 330 329 329 329 331 330 330 330 329 329 329 329 329 329 328 327 328 327 327 328 328 328 327 327 326 325 323 323 323 323 323 323 323 320 319 322 320 323 323
285 284 283 281 285 283 282 287 290 291 289 287 288 288 290 292 294 294 296 295 296 298 297 298 298 296 296 296 296 296 296 297 297 298 299 300 301 302 302 302 303 305 305 306 307 308 313 320 324 327 329 331 331 331 330 332 332 333 332 331 332 330 329 330 330 330 330 329 328 328 328 328 328 327 327 327 326 327 327 327 327 326 325 325 325 323 322 322 323 323 323 322 321 319 319 320 323
286 285 284 282 283 284 284 284 287 289 292 291 290 287 289 289 289 290 294 296 295 297 298 297 296 296 296 296 296 296 295 296 296 297 298 298 299 300 301 302 303 303 303 304 305 306 306 309 316 322 326 328 331 330 330 331 331 331 331 331 332 331 331 330 329 328 328 328 328 328 328 328 328 328 327 327 326 326 327 327 326 326 326 326 325 324 324 324 324 324 323 322 321 320 319 320 321
283 286 285 284 285 284 285 286 284 284 285 290 287 280 282 288 288 290 293 293 294 296 292 292 293 293 294 293 294 295 296 296 296 296 297 297 298 299 300 301 301 302 302 303 305 306 307 307 309 313 319 326 328 330 331 330 329 328 328 327 325 325 324 325 325 325 327 327 327 329 330 329 329 328 328 328 327 326 326 326 326 326 326 326 326 325 326 325 325 324 324 324 322 322 321 320 319
281 282 287 286 286 286 285 284 284 279 279 286 290 279 277 287 286 289 291 292 293 292 291 291 291 291 292 292 293 293 294 294 296 296 296 296 297 298 298 299 300 300 301 303 304 305 306 307 308 309 312 318 325 329 330 330 329 328 327 326 326 325 324 326 328 329 329 329 330 329 330 330 330 328 328 328 328 327 326 326 326 326 326 327 327 327 326 326 326 325 325 325 323 323 322 319 320
280 286 287 286 285 285 285 284 284 282 286 288 288 285 279 280 286 290 291 291 291 289 290 290 290 290 290 291 292 293 293 294 294 295 295 296 297 297 297 298 299 300 301 302 303 304 306 307 307 308 309 312 318 325 329 330 328 327 327 326 326 326 326 326 328 329 330 330 329 329 329 329 330 329 328 328 328 328 327 326 326 326 326 327 326 326 326 327 327 327 326 326 325 324 323 320 320
283 286 286 285 285 285 285 284 283 284 283 280 284 287 281 280 286 291 291 288 288 288 289 289 289 289 290 290 291 292 293 293 294 294 294 295 296 297 297 298 299 300 301 301 302 303 305 307 308 308 308 308 311 317 324 328 328 327 327 326 325 326 327 327 328 329 328 330 329 329 328 329 329 329 329 329 329 329 327 327 327 327 327 327 325 326 327 327 327 326 326 325 324 324 324 323 322
285 287 288 288 288 287 285 283 283 284 280 277 280 285 278 280 286 287 288 287 286 288 288 288 288 288 289 290 291 291 292 293 294 294 294 295 296 296 298 298 299 299 300 302 302 303 304 305 307 307 308 308 308 310 316 325 328 327 326 326 325 326 326 326 327 327 328 328 328 328 328 328 329 328 329 329 329 329 328 328 327 327 327 327 325 326 327 327 327 327 327 327 326 324 325 324 322
289 288 287 287 287 286 285 285 284 281 275 278 281 283 282 276 283 284 284 285 287 287 286 287 287 288 289 290 290 291 291 292 292 293 294 295 296 297 297 297 298 299 300 300 301 302 303 304 305 306 307 308 309 308 310 315 325 327 326 326 326 325 326 326 325 325 326 327 326 327 327 327 328 328 328 328 329 329 328 328 327 327 327 326 325 327 326 326 327 327 327 327 326 325 324 324 322
287 284 283 284 283 285 283 283 284 276 274 280 282 282 284 275 280 285 287 288 287 285 283 284 285 286 288 289 290 291 292 292 292 293 293 294 295 296 296 296 297 298 299 299 300 301 302 303 304 304 306 307 309 309 309 310 315 325 327 327 326 326 326 326 325 324 325 325 326 326 327 327 327 328 328 328 328 329 328 328 328 327 326 327 326 327 327 327 328 328 327 327 326 326 325 324 323
284 283 282 276 274 276 272 276 272 273 272 279 282 283 280 281 285 286 287 286 286 286 285 284 284 285 287 288 290 291 292 292 292 292 293 293 294 294 295 296 297 297 298 298 298 300 300 301 302 303 304 306 308 309 309 308 310 315 324 326 326 326 326 327 326 325 326 326 326 326 326 325 326 326 326 327 328 329 328 328 328 327 326 327 327 327 327 328 327 327 327 326 326 326 325 324 323
281 279 278 274 270 269 267 270 273 274 278 282 280 283 278 284 285 289 286 285 287 286 286 286 285 286 287 288 289 290 291 292 292 292 293 293 294 294 295 296 296 297 297 297 298 299 300 300 301 302 303 305 306 308 309 309 308 310 315 323 326 326 326 326 327 326 326 326 327 326 326 326 326 326 326 326 328 328 328 329 329 328 328 328 327 328 328 328 327 327 327 326 326 326 326 325 324
280 283 281 277 274 269 266 269 267 269 272 277 281 277 276 277 281 290 287 287 288 287 286 286 287 287 288 289 289 290 290 291 292 292 293 293 294 294 295 296 296 296 297 297 298 298 299 299 300 301 301 303 305 306 308 309 309 308 310 314 322 326 326 326 327 327 327 327 327 326 326 327 327 327 327 328 329 329 328 329 329 329 328 328 328 328 328 328 328 327 326 326 326 326 326 325 324
283 283 284 278 275 280 270 273 273 272 272 273 276 277 282 281 287 291 289 288 286 285 285 286 286 287 288 288 288 288 289 290 291 291 292 293 294 295 295 295 296 296 296 297 297 298 298 298 299 300 301 302 303 304 307 309 309 309 309 310 314 320 324 326 326 327 327 328 328 327 327 327 328 328 329 329 330 330 329 328 328 328 329 329 328 328 328 327 327 326 326 326 325 326 325 325 324
280 281 275 277 282 278 275 276 277 276 274 272 279 278 280 285 285 289 289 286 284 284 284 284 285 286 287 287 288 288 289 290 290 291 292 293 294 294 295 295 295 295 296 296 296 297 297 298 299 299 300 301 302 302 304 307 308 308 308 309 310 313 319 324 325 326 327 328 328 328 328 328 328 329 329 330 330 330 330 329 328 328 328 328 328 328 327 327 327 326 325 325 325 326 325 325 325
282 276 279 283 283 281 275 268 272 271 268 270 275 272 275 275 273 287 284 283 283 283 283 284 285 286 286 287 288 288 289 289 290 291 292 293 293 294 294 295 295 295 295 296 296 297 298 298 298 298 299 299 301 302 304 306 307 307 308 308 309 311 313 320 325 326 326 327 327 328 328 328 328 329 328 330 329 329 330 326 328 328 328 328 328 328 327 327 327 326 326 325 325 326 325 324 325
282 279 286 278 272 271 276 274 265 265 265 267 272 273 273 275 276 281 280 281 281 282 283 284 284 285 286 287 288 289 290 290 290 290 291 292 292 293 293 294 295 295 296 296 297 297 297 298 298 298 298 299 300 301 303 304 306 308 309 308 309 310 313 316 321 325 327 327 327 327 327 328 329 329 328 328 328 328 328 328 328 328 328 328 328 327 327 326 326 325 325 324 325 325 324 324 324
282 285 281 284 280 274 271 273 272 272 266 266 267 270 270 278 279 280 280 281 281 282 282 283 284 285 286 287 287 288 289 289 290 290 291 291 292 292 293 293 293 294 294 295 296 296 296 297 297 297 298 299 300 300 301 302 303 306 308 310 310 309 311 313 317 322 324 326 327 327 327 327 327 328 328 328 328 327 327 327 327 327 327 327 327 327 327 326 325 325 325 324 324 324 324 323 324
279 280 277 277 277 280 277 276 273 270 267 267 266 265 272 279 282 281 281 282 282 283 282 283 284 285 286 287 287 288 289 289 289 290 290 291 291 292 292 293 293 294 294 294 294 295 295 296 296 297 297 298 298 299 300 300 301 303 305 308 310 310 310 311 312 314 317 323 326 326 327 327 327 327 327 327 327 327 327 326 326 325 326 326 326 326 326 326 325 324 324 324 324 324 323 323 323
279 279 276 277 274 271 269 268 277 274 270 266 266 265 272 279 283 283 282 283 283 284 284 284 285 285 286 287 288 288 288 289 289 289 290 290 291 291 292 292 293 292 292 292 293 293 294 294 295 296 297 297 297 298 298 299 300 301 303 305 308 311 311 311 311 311 311 313 318 322 325 326 325 326 326 326 325 326 326 326 325 325 324 325 325 326 326 325 324 323 323 324 324 324 323 323 323
Wind_Speed
13 10 8 4 3 2 4 3 5 4 3 5 4 3 2 3 2 5 5 3 4 4 2 3 6 9 6 2 5 5 2 5 3 5 4 3 2 2 9 5 9 13 16 15 17 18 17 17 18 18 19 19 19 18 17 17 16 16 14 13 13 13 12 12 11 11 12 11 12 12 12 12 12 12 13 13 13 11 13 12 12 13 12 11 11 11 8 8 10 9 13 12 13 13 13 13 13
11 10 7 3 2 2 3 2 4 4 5 7 6 3 0 4 2 6 3 4 5 3 1 3 7 5 2 3 4 4 8 9 3 3 2 2 0 4 9 7 10 16 15 15 16 17 17 18 17 17 19 19 19 18 17 16 17 16 15 14 13 13 12 12 11 11 12 11 11 11 11 11 13 13 14 13 12 8 12 12 10 10 11 12 13 11 10 9 10 10 11 13 13 13 13 12 11
11 8 3 3 4 3 1 2 6 4 6 7 3 5 4 5 7 4 2 3 5 2 2 1 3 3 7 4 5 7 3 1 1 1 2 2 3 6 11 9 10 15 16 14 15 17 15 18 16 17 18 19 19 18 17 15 14 15 15 14 14 14 13 12 12 12 11 11 11 12 11 11 12 14 14 13 13 11 12 11 10 10 9 8 7 10 12 11 10 10 11 12 11 11 11 11 10
9 3 4 4 4 2 4 3 6 7 7 7 7 4 6 5 3 1 2 3 2 3 5 5 6 1 7 10 7 3 9 6 6 5 3 4 1 6 12 10 10 13 13 13 15 17 16 17 17 17 17 18 18 18 16 17 16 15 13 15 15 14 13 13 12 11 10 10 11 11 11 12 13 14 14 13 13 12 10 11 10 9 6 5 5 6 10 12 11 10 10 10 10 10 9 9 9
7 1 3 4 4 4 3 4 5 5 10 6 5 5 4 4 2 1 1 2 1 5 6 4 4 3 4 7 2 4 2 2 4 5 1 3 3 8 12 10 11 13 14 15 15 15 15 20 16 17 17 18 18 18 17 17 16 16 15 12 13 14 13 13 12 11 11 11 10 11 12 12 12 13 13 13 13 13 11 10 9 9 8 6 5 5 7 13 12 10 9 9 9 9 8 8 7
5 1 1 3 3 4 3 5 7 10 10 5 8 6 1 2 2 1 4 2 0 5 3 5 4 2 4 5 3 4 2 4 4 4 2 3 6 11 12 10 11 13 14 14 15 14 14 19 17 16 16 18 18 18 17 17 16 15 14 14 13 13 11 13 13 12 12 11 11 11 11 11 11 12 12 13 13 12 11 10 10 8 6 6 5 6 5 12 11 10 9 8 7 8 9 7 8
4 3 3 3 2 3 7 10 11 10 10 9 10 10 5 2 1 3 4 1 3 4 3 4 1 4 7 2 3 7 2 2 3 3 1 5 7 11 11 10 11 14 14 13 14 14 16 18 17 16 16 18 19 18 17 17 16 15 14 14 13 12 13 9 12 13 13 12 12 12 12 13 12 12 12 12 11 12 11 10 10 9 7 5 5 5 6 5 11 10 11 9 8 7 8 8 8
2 4 1 4 4 4 9 11 13 9 7 9 9 11 10 3 1 3 3 4 0 3 7 5 2 2 5 2 5 4 1 0 3 2 4 6 9 11 11 10 12 14 14 13 13 12 14 18 17 16 16 17 19 17 18 17 16 15 15 14 13 13 13 10 13 10 11 12 10 11 10 10 12 11 12 11 12 11 10 10 9 9 9 6 5 6 5 3 7 9 7 9 9 9 8 8 7
2 3 1 3 8 4 8 11 12 10 9 1 7 10 7 2 2 5 9 4 2 6 4 7 7 4 1 0 7 4 2 2 2 3 3 7 10 12 8 11 13 13 14 13 13 12 15 15 16 16 15 16 16 16 17 16 15 16 15 15 14 14 13 12 13 10 10 8 13 11 11 10 9 11 10 11 10 11 10 9 7 10 8 8 6 6 5 6 3 4 8 5 5 8 9 8 8
3 3 4 5 4 10 10 11 12 11 10 9 11 11 7 4 5 5 9 8 7 1 2 2 6 11 3 9 7 4 2 2 5 5 5 7 10 10 9 11 12 14 14 13 12 12 13 14 15 15 15 16 16 16 15 14 15 15 15 15 14 14 12 12 10 10 10 6 7 9 11 7 6 6 11 10 10 10 11 7 6 7 8 7 8 8 7 6 7 4 5 4 4 9 8 9 8
4 3 2 6 9 11 13 11 12 8 7 5 8 10 6 1 4 6 6 9 1 5 4 4 5 12 8 9 7 5 3 3 5 6 7 8 9 9 9 10 11 13 14 14 13 12 13 15 13 13 14 15 15 16 14 13 14 15 14 14 14 13 12 12 11 9 9 8 9 8 10 9 4 8 5 3 6 8 5 6 4 3 3 5 8 9 8 8 7 9 7 7 6 10 10 9 8
5 5 4 9 11 11 11 12 13 10 7 4 10 2 3 7 5 8 8 10 7 9 8 10 2 5 7 8 4 3 4 4 3 6 8 9 9 8 8 8 11 13 13 14 13 12 13 15 11 11 13 13 14 14 13 13 13 13 12 12 13 14 13 13 11 11 11 11 11 7 6 9 6 6 5 4 3 1 6 7 7 5 6 7 8 9 9 7 8 7 9 8 7 11 11 10 7
5 1 7 8 11 10 10 13 11 9 9 9 10 2 2 6 8 10 10 9 8 6 8 13 1 4 6 4 3 3 3 6 4 7 9 8 9 8 8 8 10 12 13 13 14 13 14 15 15 12 10 12 12 13 13 13 13 13 12 12 12 12 12 12 11 9 9 10 8 5 5 5 7 7 6 4 2 3 5 8 5 7 7 7 7 7 6 9 8 8 8 8 9 11 14 5 3
4 3 5 9 2 10 10 11 9 7 10 6 3 2 4 6 7 9 7 9 9 11 3 3 5 3 10 3 5 2 5 5 6 7 6 8 8 9 9 9 11 12 12 13 14 14 13 14 14 14 11 9 10 10 11 12 12 12 12 11 11 11 12 11 11 11 8 8 6 6 4 4 6 7 6 4 3 4 6 7 7 5 6 8 7 9 7 9 9 8 8 6 5 4 2 1 1
4 0 5 8 8 6 10 11 11 10 10 4 2 3 4 5 3 1 7 10 7 5 3 1 4 3 2 8 2 5 4 4 6 7 7 8 9 9 10 9 11 11 11 13 13 14 14 14 14 14 14 14 14 11 11 11 12 12 12 11 10 10 10 9 10 8 7 9 8 8 6 6 6 7 5 4 4 4 7 6 7 5 6 6 6 9 10 9 9 9 7 7 6 5 4 4 5
3 3 5 8 11 11 8 10 6 8 7 1 2 1 4 5 1 5 1 4 4 1 1 3 4 4 5 4 5 6 4 6 6 7 8 9 9 9 9 10 11 11 11 12 13 13 13 14 13 13 14 15 15 13 12 14 11 11 11 11 11 10 10 8 10 10 10 9 10 9 8 7 7 7 6 5 4 4 7 7 8 6 4 7 8 9 10 10 10 9 9 8 8 7 7 7 7
2 3 8 8 12 9 8 7 5 10 5 2 3 4 7 4 3 1 1 2 6 1 1 2 5 2 5 4 5 3 3 6 7 9 9 8 8 8 8 8 9 10 8 12 12 12 13 14 15 13 14 15 15 14 13 13 12 10 10 10 10 10 10 8 10 10 10 7 8 8 8 8 9 9 7 7 7 6 6 7 8 8 4 4 6 10 9 10 11 10 10 8 8 7 4 6 5
4 6 8 12 9 10 7 10 7 4 7 3 4 6 4 7 1 2 3 3 2 4 6 4 4 5 2 3 3 4 6 7 8 9 9 8 8 9 10 10 10 11 11 11 14 14 14 13 15 15 12 15 14 12 10 10 10 11 13 11 10 9 8 8 9 10 11 10 6 7 9 9 9 8 9 10 8 7 5 5 7 7 4 1 1 4 4 2 4 6 8 7 7 7 7 6 6
6 5 8 12 7 4 2 6 8 8 7 12 8 4 6 4 6 4 6 4 2 5 5 3 5 5 4 5 4 4 5 7 9 9 11 11 10 12 11 10 12 11 12 12 12 15 14 13 14 16 14 15 15 14 10 10 12 12 12 11 9 11 11 10 11 11 11 11 10 10 10 9 10 9 8 8 8 6 6 7 6 7 6 3 1 5 7 4 3 4 4 4 4 4 6 6 7
2 6 8 8 7 6 6 10 8 8 10 10 11 6 7 6 6 6 7 10 8 9 7 4 3 2 3 3 2 4 5 6 8 9 11 12 11 11 11 12 13 13 13 12 12 11 14 14 15 15 15 15 14 12 10 11 11 12 11 11 10 9 10 10 11 11 10 10 9 9 8 9 10 9 8 7 5 6 6 6 6 6 6 5 4 4 5 3 2 2 2 3 6 7 7 6 6
3 4 7 4 8 5 6 10 9 9 10 10 10 11 11 5 5 5 7 8 12 10 8 8 7 6 4 2 3 4 6 7 8 9 10 11 12 10 10 10 10 9 10 11 11 13 15 15 14 14 14 14 14 11 11 10 10 11 11 11 11 11 10 10 10 10 10 10 10 9 9 8 9 9 8 9 9 8 8 9 7 7 8 8 7 8 8 7 7 7 7 7 7 7 6 6 5
6 5 6 6 9 7 10 11 10 11 9 9 10 10 8 11 9 5 8 11 9 7 3 2 5 6 6 5 2 4 6 8 9 10 11 12 14 13 10 9 9 9 9 11 13 13 15 15 15 13 14 15 15 13 12 12 11 11 11 11 11 11 11 11 10 10 10 10 9 10 9 9 10 9 9 9 9 8 8 8 9 9 9 9 8 9 8 8 8 7 7 7 7 7 7 7 6
4 2 3 5 7 8 11 14 12 11 11 11 10 7 11 10 11 10 11 12 10 11 11 9 7 5 6 3 2 5 7 9 10 12 12 13 14 14 12 9 10 10 10 12 11 12 13 15 14 14 14 15 16 15 13 12 12 12 11 11 11 11 11 11 11 11 10 11 10 9 9 10 9 9 9 10 10 9 8 8 8 8 9 9 9 10 10 9 8 8 8 8 8 7 7 8 7
4 6 6 7 9 9 11 15 14 11 10 12 10 8 9 11 14 4 8 11 12 13 13 13 10 5 3 6 6 8 8 9 11 12 13 14 14 14 12 11 10 9 11 13 13 12 12 16 15 16 14 15 14 14 14 13 13 13 12 10 11 11 11 11 11 11 11 11 11 11 10 9 10 9 10 10 10 10 9 8 8 8 8 8 8 8 9 9 10 9 9 9 9 9 9 8 8
4 4 7 10 9 9 11 12 13 13 12 9 9 10 10 9 12 12 18 13 13 15 15 15 13 6 6 8 11 10 10 10 11 11 10 10 10 10 11 9 10 10 12 14 13 13 14 13 16 17 16 16 14 13 12 13 13 13 13 12 12 10 11 11 11 11 11 11 12 12 12 11 11 10 10 10 10 10 9 9 8 8 8 8 8 8 8 8 8 8 8 9 8 8 7 8 8
3 7 10 11 12 12 10 11 12 13 10 6 10 14 12 11 11 17 18 19 15 16 16 15 11 9 11 12 13 12 11 12 11 11 11 9 9 10 11 10 9 12 13 11 14 13 12 14 16 18 17 15 14 13 12 12 14 14 14 13 12 10 11 11 12 11 11 11 12 13 13 12 11 11 11 10 10 10 10 9 9 9 9 8 8 9 9 8 8 8 9 9 9 8 8 7 6
10 10 11 13 13 11 9 11 12 12 10 10 12 15 15 10 4 9 3 5 4 7 10 9 8 10 12 11 11 10 9 11 11 9 7 8 9 10 11 10 12 13 10 12 13 13 11 12 15 16 16 14 14 13 11 13 15 14 14 13 13 13 12 10 12 11 11 11 12 13 13 13 13 12 11 11 10 10 10 10 10 10 10 9 9 9 8 9 8 8 8 8 8 8 7 6 7
9 11 13 12 10 9 11 9 8 5 5 5 9 13 11 8 5 12 10 13 12 10 12 14 11 9 9 10 11 11 10 9 7 6 10 10 8 9 11 11 13 12 12 12 10 12 12 15 14 15 15 14 15 16 11 9 13 15 14 13 13 13 13 12 11 12 12 12 12 12 13 13 12 12 13 12 12 11 10 10 10 10 10 9 9 8 8 8 9 8 8 9 9 8 7 7 7
10 11 11 10 11 10 3 5 8 4 3 12 9 12 12 8 7 6 8 9 13 10 7 8 9 10 10 9 9 9 9 9 6 7 10 10 8 7 11 12 11 11 9 10 11 11 14 13 14 15 15 15 17 17 15 13 13 14 14 13 13 12 12 12 12 12 12 12 11 14 13 14 13 13 12 13 12 11 11 11 11 11 10 9 9 10 10 9 8 8 9 9 9 8 8 8 7
10 8 8 11 7 6 6 5 12 2 7 14 9 7 4 5 7 10 8 11 14 12 9 8 8 9 9 9 8 9 9 9 7 7 8 8 9 9 11 10 11 10 8 8 10 13 11 9 11 12 15 17 16 16 13 12 13 13 13 14 14 14 13 12 13 12 12 12 12 12 13 14 14 13 13 13 13 12 11 12 12 11 10 10 10 9 9 9 9 9 9 9 8 8 9 9 8
6 9 6 7 7 2 10 7 13 9 7 15 11 7 2 8 7 8 10 13 14 14 12 9 8 9 9 9 8 8 9 8 9 9 10 10 10 9 11 10 10 11 9 9 12 13 12 12 11 11 14 17 14 17 16 16 14 13 12 13 14 14 13 12 12 11 11 12 12 12 15 14 14 14 14 13 14 13 12 12 12 11 10 10 10 10 10 9 10 10 9 9 9 9 9 9 9
5 4 4 2 3 4 13 7 11 11 11 13 11 7 5 8 8 12 12 13 15 16 14 12 11 11 12 10 10 9 9 9 9 10 10 10 10 10 10 11 10 11 12 11 9 10 13 15 13 14 14 17 17 18 17 16 15 15 14 14 14 15 14 14 13 12 11 10 11 12 14 15 15 15 15 14 13 13 13 13 12 11 12 10 11 10 10 10 10 9 10 10 10 10 9 10 9
6 4 6 7 5 7 8 1 8 7 16 9 8 7 11 8 10 18 14 15 15 16 18 17 15 12 11 12 10 9 9 10 9 10 9 8 8 8 9 10 10 11 12 12 12 12 13 14 14 15 16 16 17 18 17 17 15 15 15 13 13 13 13 13 12 12 11 11 11 12 14 15 15 16 15 15 14 14 14 14 13 13 12 12 11 11 11 11 10 9 10 9 10 9 10 11 10
4 6 5 6 7 9 7 10 6 11 11 13 14 8 10 11 14 16 14 13 14 14 17 17 15 13 11 8 9 10 10 9 10 11 12 9 8 10 10 10 10 10 11 12 12 12 12 12 14 15 15 15 15 16 16 15 14 14 13 13 12 13 14 12 12 12 12 12 12 12 13 13 13 16 15 14 13 12 13 13 13 13 12 12 12 11 12 11 11 10 10 10 10 10 10 10 10
10 9 8 7 7 6 10 9 8 13 13 11 13 15 13 9 12 16 15 13 12 13 14 16 14 13 11 8 7 9 10 11 10 10 14 13 11 10 9 9 9 9 9 10 12 12 11 12 13 14 15 15 15 15 14 14 14 14 13 13 14 14 14 14 13 12 13 13 13 13 13 12 13 15 15 15 14 13 13 13 13 13 12 12 12 12 12 12 11 11 11 10 9 11 10 9 9
9 11 9 10 9 8 8 10 11 11 12 12 11 10 13 16 16 16 18 16 14 13 14 14 14 11 10 9 6 5 8 13 11 12 14 13 10 10 9 9 9 8 9 9 11 12 12 12 12 13 15 15 14 13 12 13 13 14 15 15 14 15 15 14 14 14 14 14 14 15 15 13 13 14 15 16 15 14 14 13 14 13 13 13 14 14 13 13 14 15 14 12 12 10 10 10 9
9 8 9 9 10 11 10 11 10 8 9 6 8 11 14 15 15 16 17 17 14 12 13 14 14 13 10 9 8 7 8 12 14 13 11 12 12 11 9 7 8 9 9 10 10 11 12 12 11 14 12 14 13 12 13 14 14 14 14 16 17 16 15 14 14 14 15 14 15 15 14 14 14 15 15 15 16 15 14 13 13 14 14 14 14 15 14 15 13 13 13 11 13 12 11 10 10
8 8 9 9 7 9 11 10 8 6 6 9 10 13 15 15 14 14 14 13 13 12 10 10 12 14 13 14 16 14 10 8 12 14 16 14 14 14 12 10 10 11 9 9 9 10 11 12 13 12 11 13 15 15 13 13 14 14 14 15 15 14 13 13 15 14 14 13 13 14 15 15 15 15 14 15 15 15 15 14 15 15 14 14 14 14 14 13 13 13 12 11 11 13 12 11 9
7 7 8 7 6 8 5 4 7 7 8 9 9 12 12 13 12 11 9 8 8 8 8 9 10 12 12 14 13 13 13 13 13 14 15 15 16 15 12 12 12 12 11 10 10 10 11 11 11 12 12 12 14 15 13 13 14 15 14 13 13 12 12 13 13 13 13 14 15 15 15 15 16 15 16 14 15 16 16 15 14 13 14 14 14 15 14 15 14 15 14 13 11 11 11 10 11
7 8 7 8 9 9 7 9 11 12 8 9 11 11 11 6 1 3 4 5 6 7 6 7 8 11 11 11 12 13 14 14 15 15 16 16 15 14 14 13 13 12 11 11 12 11 9 9 10 11 12 12 13 15 15 17 16 15 15 15 15 13 11 11 12 13 14 15 16 17 15 16 17 18 17 15 15 16 16 17 15 15 16 16 14 13 13 14 13 13 14 15 12 11 11 11 12
8 7 7 8 11 10 8 10 15 15 11 10 10 10 2 3 8 8 6 2 3 3 6 13 12 10 10 11 13 14 14 14 14 16 16 17 17 16 15 15 13 12 12 13 13 12 9 11 11 11 11 11 11 13 16 16 14 14 13 12 12 11 11 11 12 13 15 15 15 15 18 18 18 17 17 18 17 16 16 15 15 15 15 13 12 12 12 13 12 13 15 14 15 12 10 9 9
8 3 3 8 9 13 12 11 13 9 7 6 8 7 1 5 11 6 4 5 5 10 15 13 13 14 14 15 14 14 14 13 14 15 15 15 16 16 16 16 16 14 14 14 13 12 13 11 12 12 11 10 11 13 14 14 15 14 12 11 11 12 14 14 15 17 17 17 19 17 17 16 17 17 17 18 17 15 17 17 16 14 13 12 12 12 11 11 14 15 15 15 15 15 10 9 9
7 8 3 11 11 11 11 11 8 6 8 4 7 4 5 7 8 4 4 7 8 14 13 13 14 14 15 14 14 14 14 15 15 15 15 17 17 17 17 17 16 15 15 14 13 13 13 13 12 11 11 10 10 12 13 13 16 15 16 14 14 14 14 14 16 16 16 15 13 15 15 15 16 17 18 17 16 16 15 15 16 15 13 12 12 12 13 15 14 14 13 14 14 10 11 12 12
7 11 12 12 12 11 10 8 5 6 5 13 5 4 6 7 4 4 7 8 11 13 12 13 14 16 17 16 16 16 15 15 14 15 16 16 16 16 16 16 14 15 14 14 13 13 14 14 13 12 10 10 11 10 12 13 14 15 15 16 14 13 16 18 17 17 16 14 15 14 13 14 16 16 17 17 17 17 14 15 15 14 14 14 12 14 15 14 13 12 13 14 12 11 14 14 13
9 16 15 14 11 10 8 5 5 5 6 6 10 5 3 3 3 5 8 7 12 11 13 16 18 18 18 18 17 17 17 16 16 15 16 17 16 16 15 16 15 15 14 13 13 13 13 13 12 11 11 10 10 13 12 13 15 16 16 16 16 15 17 16 15 14 15 15 17 16 14 14 14 16 17 18 18 18 14 15 15 15 14 15 12 13 14 14 16 15 14 14 15 15 14 14 12
11 18 16 10 6 4 3 3 4 2 1 7 9 9 5 5 6 6 7 11 10 10 14 17 19 18 17 16 17 18 17 16 16 17 16 16 16 16 15 15 15 14 13 13 14 12 13 12 13 13 12 9 10 11 12 14 15 16 17 17 18 17 14 15 15 16 16 14 16 17 15 14 14 14 16 17 17 18 18 16 16 17 17 16 11 15 15 15 16 17 17 16 16 16 14 13 15
15 14 11 3 3 3 3 0 2 2 1 5 8 10 7 4 7 6 6 7 10 13 14 16 20 21 20 17 17 16 17 16 16 17 17 17 15 15 16 16 17 16 14 14 13 13 13 13 14 15 13 10 10 11 11 14 14 15 16 19 20 20 19 17 16 17 16 16 16 18 16 15 14 14 13 14 17 17 17 17 16 17 17 14 13 15 16 17 16 17 17 17 15 16 15 15 13
11 8 9 6 3 3 2 1 1 4 5 7 9 12 8 4 3 6 6 9 14 14 16 19 20 19 18 17 17 17 18 18 18 18 18 19 20 20 19 19 19 18 18 18 15 15 14 13 14 16 15 13 11 10 11 11 12 14 16 19 20 20 20 17 19 19 17 19 17 17 13 15 14 14 14 13 14 17 16 16 17 17 17 17 17 15 16 16 15 15 14 15 14 15 16 13 15
12 10 10 7 5 3 4 5 6 6 6 9 11 13 6 6 3 7 11 10 13 12 11 15 17 18 18 18 18 16 16 18 17 17 17 17 17 18 19 19 18 18 16 18 18 16 15 14 15 15 16 16 13 12 11 11 12 13 14 16 18 18 20 20 20 19 18 15 13 13 11 12 12 14 15 14 15 18 16 16 17 17 16 17 17 17 16 17 15 15 15 15 14 15 15 16 15
11 12 10 7 7 5 6 6 4 5 5 8 12 10 5 4 3 6 10 12 10 11 11 10 13 15 16 17 16 17 17 16 16 16 16 16 16 17 17 17 18 17 18 17 17 16 15 15 15 15 16 15 14 13 12 11 11 12 13 15 15 16 18 19 19 19 19 15 14 14 12 12 13 15 14 15 15 16 15 16 15 16 16 16 16 17 16 16 16 15 15 15 15 14 14 17 17
7 5 6 8 5 4 6 6 8 8 9 14 11 2 3 9 5 8 13 10 9 10 9 9 11 12 14 13 15 16 19 18 17 16 16 17 18 19 17 16 16 17 19 17 15 16 15 16 17 18 18 17 15 14 13 12 10 11 11 13 14 14 16 16 17 17 17 18 15 14 13 12 12 13 15 12 13 15 15 15 15 16 16 17 16 16 15 15 15 14 13 14 13 14 14 14 15
2 4 3 3 5 2 4 5 5 6 10 8 5 4 7 7 10 5 9 9 5 6 9 11 15 15 15 14 16 17 18 18 17 18 19 20 19 18 18 17 16 16 19 17 18 16 16 16 17 18 18 17 16 15 13 12 12 10 11 13 14 14 13 14 15 14 16 17 17 16 15 13 12 12 11 11 11 11 13 15 15 15 16 15 15 15 16 15 15 15 14 14 16 11 14 17 16
7 5 4 5 4 2 5 5 6 8 7 5 3 7 8 8 1 8 6 4 11 15 17 17 18 18 17 15 16 17 17 18 17 17 17 20 20 19 17 18 17 18 18 18 19 17 17 17 16 18 19 18 17 15 14 12 11 11 11 11 12 13 15 16 16 17 17 16 16 17 15 14 13 11 11 10 11 11 12 13 13 14 15 15 15 15 15 15 15 14 14 14 14 14 13 15 14
4 4 7 5 0 3 4 5 5 4 4 5 4 10 10 8 5 4 10 12 15 17 20 22 20 19 20 18 17 18 18 17 16 17 17 17 17 19 19 17 18 19 19 19 20 18 15 15 16 17 17 19 19 17 15 13 12 11 10 10 11 12 13 15 15 17 14 13 14 15 15 15 15 13 10 7 9 10 11 12 13 14 14 15 15 14 15 15 14 13 14 13 14 14 14 13 14
6 5 6 5 2 2 5 3 5 8 7 6 7 9 9 9 9 8 12 12 13 16 18 20 21 21 19 19 20 21 20 18 17 17 16 17 17 18 19 20 20 20 19 17 17 17 17 17 16 15 16 16 17 14 14 13 12 10 8 9 10 11 11 12 13 14 12 12 14 14 12 14 13 14 9 9 9 10 11 13 14 14 13 14 14 14 13 13 14 14 13 13 13 14 14 14 13
1 4 4 3 1 2 5 3 4 2 7 6 4 7 8 4 3 10 12 9 11 15 16 16 17 19 18 18 18 18 18 17 17 17 17 17 17 18 19 20 21 22 21 19 19 17 20 18 17 18 18 17 17 17 16 15 13 11 12 11 9 9 10 9 10 12 12 13 13 14 10 10 14 14 12 10 12 13 14 14 14 14 14 13 14 13 13 14 13 13 13 12 12 13 14 14 13
4 2 4 3 3 1 3 2 2 2 5 4 6 8 3 2 5 9 6 7 11 15 17 14 14 16 17 17 18 17 16 15 15 16 17 18 18 18 18 18 18 19 18 18 19 19 18 18 19 18 18 19 18 17 16 15 13 13 13 13 11 10 10 9 8 7 10 12 12 12 10 12 11 11 12 12 13 15 15 14 14 13 14 14 14 14 13 13 13 14 14 14 12 13 14 13 11
3 2 3 7 7 7 5 5 2 2 2 5 6 12 13 9 6 1 3 8 12 19 17 13 13 15 16 16 17 17 15 15 15 15 16 16 17 18 18 17 17 18 19 21 20 19 20 20 19 18 18 16 18 18 16 16 14 12 14 13 12 10 9 8 8 7 7 8 9 7 7 8 8 7 8 10 10 12 13 14 13 13 13 14 14 14 14 13 14 14 14 11 13 13 13 14 11
Wind_Direction
322 329 324 307 244 207 209 198 250 155 244 248 270 215 77 214 354 281 264 176 289 108 233 131 148 152 191 273 269 332 13 251 246 267 0 57 95 205 184 149 165 158 159 161 169 163 173 168 169 169 169 172 168 166 169 162 164 161 159 161 163 161 161 166 172 176 174 175 174 171 170 169 158 161 156 153 148 160 155 142 139 132 127 123 121 123 127 121 121 128 127 131 123 119 112 110 107
324 324 309 241 212 220 189 312 268 261 235 263 242 225 198 135 211 236 291 340 347 360 103 207 186 188 308 317 303 295 245 229 302 318 80 62 226 181 194 168 167 164 160 162 168 165 174 169 172 170 168 174 169 169 169 167 163 162 161 159 162 162 162 165 168 175 175 178 169 172 174 160 157 160 157 152 146 148 135 138 125 122 129 131 128 122 125 124 121 131 128 124 121 117 116 114 111
319 319 291 203 201 269 336 222 258 243 261 255 214 202 110 218 237 232 267 346 343 82 162 187 194 224 226 253 254 219 329 18 289 220 287 67 205 172 186 172 176 164 159 164 169 167 173 171 171 170 168 175 169 171 168 168 169 167 162 162 164 164 165 165 165 171 173 175 171 168 166 161 162 157 157 154 152 150 137 134 131 130 128 121 121 123 125 124 128 134 132 126 124 122 121 121 113
304 282 289 206 200 231 241 207 248 254 249 259 285 179 197 229 206 287 68 18 349 158 162 164 188 136 241 230 247 33 261 241 210 188 204 175 275 122 166 169 174 164 161 166 170 172 175 164 170 171 168 173 172 172 168 171 173 174 172 167 167 166 167 168 164 166 166 166 171 164 165 162 165 159 158 157 154 154 153 141 135 129 127 128 131 142 129 130 129 129 129 130 127 128 129 125 118
302 214 270 237 269 209 238 256 265 233 243 236 249 107 202 210 276 82 36 41 220 188 183 161 253 137 284 296 353 258 16 97 204 199 321 79 94 145 157 160 169 167 165 169 170 171 174 157 167 172 170 171 173 174 171 171 173 177 174 176 179 165 172 174 166 161 160 159 165 166 165 164 165 159 155 157 159 159 148 136 138 135 144 146 153 160 151 138 139 137 138 137 136 132 131 130 121
254 246 158 257 249 2 259 235 222 232 240 260 252 270 150 221 240 24 313 320 116 198 188 196 267 355 215 215 222 255 68 273 78 188 237 104 147 146 152 158 168 167 167 170 170 172 173 156 165 174 173 171 174 174 175 174 174 174 177 178 182 174 180 176 164 162 160 160 162 168 167 165 164 162 162 168 159 149 148 140 135 129 119 140 154 161 184 149 142 143 150 143 146 144 137 131 122
333 258 170 209 196 229 251 246 248 243 235 227 254 261 254 178 286 313 295 272 125 199 196 223 117 261 262 181 229 238 42 49 216 65 257 114 146 151 150 160 166 167 166 170 173 174 168 157 163 174 171 174 172 176 175 178 175 174 177 178 181 179 179 197 182 170 163 167 164 168 172 166 166 165 172 170 160 157 137 136 139 138 138 151 165 171 175 201 155 161 148 144 145 148 144 135 133
243 277 104 241 224 189 235 248 253 246 237 212 252 265 271 294 63 272 289 300 323 230 181 230 248 252 278 109 282 90 51 225 48 75 110 142 144 150 156 158 164 165 167 170 172 177 147 162 165 172 173 175 174 172 178 179 176 174 174 177 178 183 185 191 189 182 175 172 182 170 165 171 168 172 173 153 149 147 153 150 152 150 148 162 176 177 186 191 165 162 191 152 156 151 143 142 141
226 249 111 255 246 209 249 243 253 246 250 151 250 255 275 306 256 286 280 263 306 245 189 200 201 229 183 295 244 88 133 142 96 106 150 143 153 153 158 164 167 164 169 172 173 176 162 165 169 171 173 175 170 170 177 178 175 175 175 176 181 184 188 188 191 185 167 184 170 187 179 189 173 172 179 173 172 164 166 163 163 158 163 163 180 185 188 168 172 185 167 149 134 151 148 146 145
202 255 214 241 275 246 241 244 243 244 241 238 251 253 254 203 243 229 274 272 260 211 200 80 198 232 316 278 280 188 118 80 130 121 147 151 154 158 156 166 169 167 167 173 175 174 168 164 171 174 172 170 168 170 177 176 176 177 179 178 179 179 188 191 193 182 172 181 192 189 182 185 200 166 166 173 177 175 193 177 206 191 158 171 188 192 182 180 180 181 199 173 187 157 150 147 140
228 166 341 244 229 245 242 247 243 231 228 230 253 253 264 255 253 253 236 267 42 253 107 186 206 235 253 263 269 76 84 131 173 147 148 152 156 162 158 163 167 170 169 174 176 175 167 170 172 176 171 168 171 171 175 174 175 179 182 177 177 176 188 194 193 186 190 191 210 193 192 164 179 160 145 115 187 200 180 152 171 155 253 200 198 199 186 182 183 173 191 202 182 160 160 143 138
242 203 160 240 243 240 244 253 253 255 251 218 254 200 192 232 217 249 231 247 243 223 233 167 268 208 220 255 257 113 97 162 172 132 147 148 161 159 158 162 168 172 171 175 176 179 170 173 173 173 174 172 170 170 174 173 175 178 182 175 176 180 185 191 196 186 196 203 214 166 161 170 158 140 126 103 71 223 164 160 166 172 210 218 193 211 189 187 183 191 181 188 188 160 150 146 150
257 135 231 249 248 244 255 261 261 270 268 248 251 168 179 208 212 243 256 252 258 259 238 203 37 215 247 229 72 116 172 145 133 140 144 152 157 161 162 165 170 174 175 178 179 179 177 177 181 175 174 173 171 170 173 175 176 178 181 177 181 179 183 187 185 198 196 193 218 197 164 186 172 150 142 124 123 82 154 149 160 170 207 201 190 204 204 182 185 184 199 187 193 202 209 136 129
256 231 237 248 245 252 246 254 260 253 254 261 188 122 210 223 235 257 263 252 242 239 6 241 197 229 260 302 230 190 95 101 124 140 146 150 153 165 167 164 174 177 179 183 183 182 182 181 183 182 171 176 173 171 173 178 177 178 179 178 183 182 185 187 179 190 185 179 204 237 194 205 192 157 149 151 118 122 136 139 140 175 210 181 199 187 197 192 185 185 197 194 200 207 281 163 125
257 332 248 255 253 238 239 243 249 248 257 240 91 177 206 245 297 272 241 257 269 39 77 238 211 181 253 211 220 63 42 120 131 133 148 153 156 162 167 170 173 180 184 189 187 188 187 185 186 188 186 184 183 183 186 181 180 178 179 180 185 186 188 185 175 177 173 172 188 209 200 192 150 127 110 125 124 146 139 134 145 171 209 202 187 196 187 189 189 186 179 183 193 202 216 223 203
273 237 241 247 240 235 227 227 239 261 259 181 105 153 242 233 153 258 273 304 311 6 276 202 212 247 349 288 42 2 34 129 129 143 146 153 158 160 166 173 178 182 189 193 192 194 191 190 189 191 192 193 189 187 190 189 181 179 180 181 185 189 191 185 184 182 178 181 189 197 188 178 168 141 134 134 135 159 161 169 145 166 225 222 182 197 190 190 202 195 179 180 188 197 192 206 193
251 251 236 234 250 216 223 230 212 249 271 240 109 190 230 221 105 274 341 252 264 209 244 249 212 288 290 12 2 18 107 120 135 146 152 157 165 167 172 179 183 187 191 198 197 195 197 196 193 192 195 195 195 192 194 192 181 179 180 184 186 191 190 175 175 176 169 156 182 191 195 208 211 213 174 212 141 197 164 140 148 130 209 282 221 192 192 186 199 197 179 198 199 211 178 90 107
227 223 228 242 242 238 228 234 239 348 286 344 54 13 305 247 109 62 257 196 208 264 253 245 254 252 2 36 57 96 127 148 158 160 168 171 178 178 184 186 187 192 195 196 200 198 198 200 197 196 195 197 197 195 195 192 183 183 193 189 194 192 190 179 174 186 186 192 169 180 205 210 218 212 220 213 201 189 156 165 153 146 152 190 289 211 231 217 213 227 202 201 206 203 141 190 154
227 236 234 244 242 264 343 4 14 358 330 334 327 353 331 338 339 15 309 220 271 295 247 214 251 222 126 88 83 118 142 158 171 183 179 186 190 188 190 191 195 193 198 198 198 199 200 201 201 200 197 197 195 196 195 196 191 192 197 194 194 199 199 198 200 195 199 205 200 206 208 211 209 214 214 205 219 181 193 162 173 156 164 152 156 211 209 232 234 222 237 239 234 191 206 228 230
272 273 244 239 18 331 27 23 24 18 347 333 332 343 329 314 317 340 281 290 292 268 266 209 213 271 158 115 140 142 171 173 192 196 195 196 198 198 196 196 199 202 200 200 196 198 201 204 204 205 201 198 197 198 195 197 197 196 203 199 199 196 202 201 208 205 208 207 205 207 211 213 210 215 199 149 176 189 179 170 184 172 168 171 175 173 147 157 193 172 192 231 212 228 229 224 228
23 252 253 336 358 334 54 7 7 355 346 328 327 318 298 341 346 310 295 292 262 264 261 267 287 303 348 89 162 172 185 189 201 209 211 209 208 207 208 206 205 201 204 202 203 202 201 203 204 206 203 200 201 197 197 199 197 200 204 204 205 204 200 200 207 207 207 208 206 209 213 213 212 214 211 207 215 213 215 211 204 214 212 214 166 222 217 194 197 215 204 206 225 217 226 229 225
301 269 19 7 10 311 345 344 341 342 332 316 320 315 314 332 290 261 270 257 256 261 345 31 294 309 329 324 200 197 202 199 202 210 216 214 212 212 212 211 206 211 208 208 207 205 203 204 204 204 203 203 203 203 198 200 201 203 204 205 208 208 207 206 206 209 211 210 207 210 211 213 215 216 215 211 210 215 212 216 218 216 216 219 202 222 220 222 218 221 224 221 224 228 229 229 232
286 222 59 21 8 329 328 327 329 327 326 319 315 327 326 304 297 284 270 261 271 289 313 311 300 310 324 317 226 215 215 215 210 214 217 219 218 217 215 208 201 204 208 213 209 210 206 206 204 204 204 205 205 207 203 202 204 207 208 207 209 211 210 210 211 213 213 210 210 205 211 214 214 217 217 216 216 217 216 214 213 215 216 218 219 221 224 225 228 227 229 229 231 234 235 238 240
252 277 347 338 347 324 325 315 320 317 308 303 304 305 291 298 291 345 280 273 273 282 290 293 296 290 275 271 240 247 236 227 222 220 220 224 221 218 213 209 206 201 209 213 212 210 207 207 205 205 205 205 207 206 205 207 207 210 213 207 210 213 212 214 215 215 215 216 212 215 212 214 213 215 218 218 219 222 222 218 217 214 216 220 222 224 227 230 230 231 235 238 237 238 239 240 242
277 269 341 319 324 319 317 315 312 308 300 290 295 282 280 280 283 304 281 280 277 281 285 283 279 266 263 260 264 257 253 247 242 232 227 233 234 227 217 218 212 208 212 211 211 211 210 208 207 207 206 204 206 207 205 209 211 212 214 213 214 208 214 218 217 216 217 217 216 216 216 217 217 219 219 219 222 223 224 223 220 221 219 222 223 227 227 230 232 232 233 236 236 239 239 238 243
44 319 315 310 310 315 316 308 301 299 295 278 283 280 279 269 281 270 271 275 272 265 267 273 278 285 277 271 271 269 260 253 246 241 230 227 227 224 217 214 216 218 216 208 212 213 210 208 209 210 209 206 206 205 211 215 215 215 214 215 215 209 215 218 218 220 220 219 220 218 217 218 220 221 222 222 222 224 225 224 227 227 226 225 225 230 228 231 232 230 234 236 239 238 241 242 244
352 315 314 309 304 308 309 297 297 294 287 276 271 278 276 269 199 269 126 286 342 305 284 283 285 281 280 277 281 282 273 267 261 259 251 235 230 227 227 220 223 227 218 213 211 213 210 208 212 212 211 208 207 205 202 210 218 219 217 218 218 218 218 220 224 223 222 224 223 218 219 220 224 224 225 223 223 225 228 228 229 230 231 230 230 232 231 231 234 236 233 233 233 237 239 241 243
318 314 310 298 298 303 296 288 296 319 307 352 283 275 277 254 207 263 292 315 329 318 307 305 307 304 308 322 321 316 309 299 293 267 256 247 232 226 222 220 224 224 220 218 209 210 212 213 213 214 213 206 210 212 205 201 211 220 223 222 222 221 219 220 221 228 231 227 223 222 220 219 221 226 225 225 227 224 225 224 226 228 231 231 231 233 232 228 234 236 237 238 240 243 245 245 243
307 308 301 308 311 301 1 359 343 326 348 351 329 289 266 201 232 48 34 4 3 349 334 318 315 317 320 321 318 311 306 303 301 280 272 273 269 245 236 226 224 221 222 219 208 209 214 212 215 215 213 211 211 214 214 213 216 221 222 224 225 226 225 224 225 225 226 229 227 223 220 219 219 223 224 224 223 224 226 227 227 227 230 230 230 231 235 235 233 235 236 235 238 241 246 246 243
301 285 293 303 303 291 59 3 359 295 33 347 335 270 279 199 126 52 25 7 356 348 353 353 345 342 336 339 332 323 320 312 299 276 271 274 276 270 257 247 231 228 222 212 205 212 213 211 214 215 213 214 211 214 214 213 215 221 224 225 226 226 226 225 227 229 226 227 226 224 223 223 221 221 224 223 224 224 226 228 228 229 228 228 230 226 228 232 231 230 234 229 230 234 236 238 240
306 296 270 287 294 244 57 31 7 353 27 347 331 252 127 125 113 48 14 4 356 342 346 349 344 340 335 329 323 323 320 319 310 302 285 272 266 262 260 260 247 233 230 225 216 211 205 213 218 218 211 213 211 214 214 217 214 215 216 222 222 222 225 226 227 228 229 225 223 224 224 223 222 223 222 225 224 224 225 229 229 230 228 228 229 226 226 226 230 231 229 228 231 231 235 239 240
339 289 258 109 331 306 348 42 22 4 339 347 335 248 258 321 322 351 358 356 357 341 335 338 340 337 331 329 328 324 317 314 306 297 286 281 274 267 261 252 241 236 234 233 226 217 214 215 214 223 214 212 212 213 214 215 216 218 217 216 219 218 222 225 224 224 225 226 224 225 222 222 222 222 221 221 224 224 227 228 230 230 227 227 229 228 223 223 225 229 228 229 233 235 235 239 239
34 11 334 351 329 320 319 44 17 8 339 333 7 307 326 297 323 326 346 345 350 340 331 329 333 333 329 326 326 321 320 323 317 306 298 294 290 277 273 264 244 237 232 229 226 223 220 214 212 221 222 215 213 213 214 215 215 217 217 213 211 212 216 217 219 219 221 221 224 223 222 221 222 224 223 221 224 226 227 228 228 229 228 227 229 229 227 225 224 227 230 221 229 237 237 239 242
1 355 326 328 327 327 310 326 354 338 348 319 317 300 292 299 312 318 331 340 338 333 324 322 324 322 319 309 314 316 317 316 312 314 319 320 308 302 291 281 270 253 240 235 231 224 219 216 219 223 225 224 223 222 216 214 215 217 218 220 214 214 213 212 214 213 217 221 223 223 219 215 221 227 224 220 226 229 229 228 226 224 223 223 226 226 229 226 224 226 230 228 227 233 239 240 241
335 339 330 321 312 308 299 318 321 332 322 309 308 302 295 308 322 315 320 326 326 320 318 313 311 310 309 303 292 307 310 309 311 326 328 326 319 310 307 300 285 266 255 243 234 232 229 228 225 219 222 222 221 219 215 214 215 219 221 219 216 219 221 219 218 216 219 222 224 224 220 217 215 219 220 220 223 224 226 226 224 222 220 221 223 226 227 224 222 222 227 232 228 231 237 239 242
318 331 324 319 316 314 319 315 319 316 316 311 305 299 313 320 318 318 315 321 321 315 311 309 309 309 308 314 311 307 320 318 328 332 322 318 318 317 318 319 305 291 273 258 246 234 228 226 223 229 226 224 222 218 216 216 215 217 219 220 223 222 221 220 220 223 222 223 224 225 225 225 221 220 221 220 222 225 226 226 225 224 223 224 226 227 227 227 225 228 233 235 240 235 229 238 241
299 305 306 311 314 313 318 325 310 317 308 289 313 314 307 306 309 308 307 310 309 309 311 315 317 320 323 325 334 344 345 334 322 324 335 336 339 342 332 317 315 307 293 278 263 248 239 232 229 227 222 221 223 214 215 213 212 215 219 220 222 222 220 219 221 222 223 224 223 222 221 222 223 225 223 222 223 222 222 224 225 225 225 226 229 231 230 231 229 232 233 224 230 239 236 225 230
325 315 315 314 324 313 330 320 340 327 313 297 306 304 301 300 301 297 297 299 306 315 317 316 320 322 327 340 356 6 355 340 342 350 358 4 1 358 356 350 340 336 328 312 288 271 257 247 240 237 228 232 226 224 218 213 215 215 211 218 221 224 220 218 223 223 224 226 224 221 222 222 220 220 221 223 224 221 220 219 223 224 223 226 229 232 230 226 223 225 225 231 220 228 237 228 218
339 342 336 323 337 336 318 302 334 328 301 296 309 305 296 297 295 297 303 304 302 312 324 314 314 322 344 4 4 1 6 3 358 359 3 5 3 4 4 2 359 348 337 327 313 296 277 259 247 242 237 235 234 229 220 220 223 223 223 230 228 232 229 227 229 228 224 226 225 222 220 220 217 217 218 219 224 224 222 220 222 221 221 225 227 229 229 228 227 225 224 227 228 222 232 226 216
1 349 349 345 352 351 338 349 345 322 310 298 312 300 294 304 328 307 298 335 330 323 316 302 22 20 23 19 16 11 14 8 6 2 360 359 0 0 0 0 355 348 351 349 344 329 309 284 266 253 245 234 231 233 228 229 228 227 226 232 233 229 229 226 230 232 230 226 227 224 221 220 216 216 213 211 218 221 222 224 226 226 227 226 226 226 223 225 222 223 224 225 224 228 220 222 220
14 21 10 348 343 331 328 325 327 310 281 262 291 287 233 86 18 352 26 55 265 293 343 45 54 40 37 34 26 19 15 10 4 2 1 359 357 358 356 353 349 352 351 348 343 337 320 311 297 279 263 249 237 230 230 233 233 234 231 231 234 233 230 228 225 227 227 227 227 223 220 216 216 216 213 213 216 220 219 220 221 222 222 217 216 221 222 221 220 222 223 222 216 220 220 221 214
359 83 355 328 319 316 317 324 331 323 336 133 338 333 134 63 2 345 18 347 349 46 48 39 38 35 31 29 22 15 13 11 7 5 2 357 356 352 355 353 352 348 348 343 338 335 333 322 310 300 284 266 249 238 226 227 234 233 227 219 221 221 226 222 222 226 224 223 224 226 225 220 218 219 220 220 218 215 217 216 216 216 214 214 215 220 224 222 224 223 221 219 220 219 224 215 221
343 21 305 313 308 307 314 323 334 332 332 356 10 309 294 30 345 327 333 336 358 53 47 39 30 27 24 21 16 12 10 4 1 3 3 360 357 354 352 352 348 346 343 338 335 336 337 333 324 311 298 285 266 249 233 231 234 235 232 226 225 220 222 229 230 234 237 234 233 233 231 223 216 220 221 218 218 215 215 215 215 216 217 216 216 219 221 222 222 222 220 218 222 216 212 227 228
353 342 318 309 298 304 318 324 303 295 295 286 264 243 288 313 312 302 350 337 47 48 49 41 33 25 20 14 11 8 6 5 359 358 359 358 355 354 349 344 344 342 338 336 336 336 336 335 330 322 310 299 286 266 245 233 236 234 230 230 226 225 230 235 232 236 238 240 237 234 232 229 223 222 222 219 218 218 213 215 215 214 215 217 213 217 222 221 223 221 215 219 219 213 213 218 225
312 321 318 299 288 294 299 292 289 292 322 353 30 358 290 266 340 346 3 31 44 44 37 34 26 20 16 10 8 5 3 0 0 358 355 354 351 347 345 342 339 338 338 337 337 334 332 329 329 328 322 310 298 287 266 246 241 237 234 234 232 230 236 237 238 239 239 236 236 235 232 231 228 223 222 222 219 218 210 212 211 215 216 216 208 216 220 220 220 222 216 214 216 215 214 218 221
327 313 301 280 288 292 256 238 271 316 300 19 11 2 325 323 56 54 45 41 37 34 38 32 21 15 11 8 4 2 0 360 357 357 353 351 349 346 342 337 341 342 337 334 333 333 334 334 332 332 328 321 309 298 284 261 244 239 237 233 233 235 230 235 236 239 238 236 235 233 230 229 230 226 223 223 223 220 217 211 212 213 216 217 208 215 220 219 220 221 220 216 214 216 215 215 217
289 298 310 18 94 86 116 246 246 243 227 33 6 356 340 323 61 37 36 42 20 21 25 18 12 9 6 4 4 359 359 357 357 352 351 347 347 346 345 344 343 342 340 339 339 338 335 334 333 333 328 320 315 306 294 281 261 243 241 238 236 236 236 234 235 238 237 233 233 234 232 233 234 233 227 224 222 221 220 216 214 216 217 215 212 217 220 222 221 223 223 221 214 215 218 216 214
329 342 335 290 159 154 143 104 241 341 11 35 2 346 325 266 98 69 67 50 38 35 23 12 7 1 358 357 357 357 356 355 352 353 350 348 346 348 349 347 346 343 341 342 340 337 335 333 332 331 330 330 322 313 303 290 279 257 245 244 240 238 236 236 235 236 233 232 229 233 225 233 233 233 228 224 222 220 218 218 217 219 219 219 217 219 223 222 223 222 222 220 218 216 219 215 217
2 0 5 22 21 8 12 14 6 359 329 336 345 349 313 252 32 99 77 58 53 47 34 18 5 358 356 353 356 356 355 354 352 348 347 347 347 346 344 342 342 343 341 338 336 333 333 331 332 331 327 329 326 318 309 297 285 273 259 249 246 242 240 238 238 239 235 231 223 220 217 218 221 228 229 226 224 218 216 217 218 216 218 218 219 218 221 221 221 221 220 219 217 214 215 216 217
360 15 8 23 19 28 8 357 323 309 294 318 336 339 271 338 113 78 83 57 54 56 35 21 11 359 353 351 354 354 355 354 350 346 346 345 344 343 342 340 340 338 337 337 334 333 333 329 331 329 324 326 326 322 318 306 292 283 275 262 252 247 244 242 242 242 241 235 228 230 216 222 218 223 222 220 225 224 218 219 217 218 219 219 219 220 221 221 221 221 220 218 215 216 217 216 219
353 343 23 53 47 25 353 345 343 326 310 313 319 298 32 342 57 144 90 75 56 39 29 10 5 1 355 351 354 356 356 354 350 347 344 345 342 343 341 340 338 337 336 336 335 334 332 331 331 330 327 328 328 324 321 315 304 293 281 272 263 254 249 246 245 244 243 240 233 227 227 218 224 221 224 217 215 221 220 220 220 221 221 221 221 221 222 223 221 221 222 220 219 220 219 219 222
3 335 273 34 45 328 337 320 298 323 317 316 343 309 321 311 317 133 99 106 80 42 17 12 8 360 354 355 357 353 351 350 348 345 343 343 344 343 343 342 340 338 337 335 335 335 333 330 327 326 325 325 328 328 322 317 313 302 292 283 275 265 257 253 250 246 245 243 241 234 225 218 220 224 218 209 202 201 208 218 221 224 224 223 223 223 222 223 221 221 224 223 223 218 222 221 223
335 320 31 351 302 231 301 260 222 262 264 260 300 302 302 317 3 101 91 49 23 14 8 9 1 354 355 358 356 352 345 342 344 344 344 342 342 344 344 342 341 340 338 335 334 333 329 328 328 329 326 326 328 331 324 317 313 308 298 288 282 276 265 255 250 250 249 247 245 242 240 235 229 223 226 206 206 204 205 205 216 225 225 224 223 223 223 224 223 223 225 224 224 221 221 223 221
289 16 7 331 257 261 0 322 312 314 317 300 331 303 310 336 322 96 19 19 22 14 3 355 356 354 354 353 352 349 344 341 340 342 344 343 341 342 341 341 342 340 337 335 334 333 329 329 329 328 327 328 327 328 329 324 316 310 304 298 287 278 274 267 260 255 250 247 244 245 243 241 238 229 209 208 202 211 207 204 219 223 223 223 224 224 224 224 223 226 226 225 224 222 223 224 227
28 34 316 316 12 314 355 307 340 339 325 313 293 300 283 277 280 342 351 14 11 6 3 353 349 351 351 349 346 345 345 344 345 347 346 345 345 344 344 341 341 341 339 336 334 335 333 333 331 331 329 326 323 322 325 323 320 314 305 300 295 288 279 275 270 263 253 244 241 241 238 241 241 236 217 217 217 214 221 222 220 222 222 223 223 224 222 223 222 225 226 226 223 224 227 227 226
171 262 43 36 286 25 326 4 293 284 289 331 286 321 290 251 341 345 330 20 359 354 0 352 343 345 347 345 345 342 344 344 344 345 345 344 345 345 345 345 344 344 343 343 341 340 339 338 335 333 332 332 330 331 330 327 326 317 310 306 297 285 280 274 277 277 261 248 245 239 230 233 239 238 234 214 224 227 224 221 221 221 222 222 223 222 219 217 217 221 223 222 219 216 222 225 226
332 353 25 27 21 247 249 246 245 287 302 300 303 305 283 127 356 315 329 354 351 353 348 344 342 342 345 345 341 339 343 343 345 344 344 343 343 345 346 347 345 345 344 346 347 344 340 337 337 336 334 332 334 333 331 326 323 320 315 310 310 304 291 277 264 274 293 277 251 238 234 233 229 230 230 221 222 227 224 222 220 219 220 220 219 217 214 215 216 218 219 220 217 215 221 226 224
283 348 44 5 357 355 350 313 153 246 273 298 302 279 275 297 294 288 356 333 341 347 338 339 344 344 343 343 339 338 339 341 343 343 342 341 341 343 343 345 348 348 348 348 346 345 345 341 336 335 336 336 335 332 331 325 321 316 317 314 312 308 298 290 280 260 254 279 303 293 258 235 227 220 215 216 218 226 225 221 217 216 216 218 219 218 216 214 217 219 218 217 220 219 222 228 224